| time (UTC) | temp F | wind direction | speed knots | gust knots | rain 1hr in | rain 24hr in | rain mn in | humidity % | barometer mb |
| 20260506185026 | 50 | 0 | 0.0 | 0.0 | 0.00 | 0.29 | 0.29 | 97 | 1010.4 |
| 20260506184545 | 50 | 0 | 0.0 | 0.0 | 0.00 | 0.29 | 0.29 | 97 | 1010.4 |
| 20260506184026 | 50 | 0 | 0.0 | 0.0 | 0.00 | 0.29 | 0.29 | 97 | 1010.3 |
| 20260506183526 | 50 | 0 | 0.0 | 0.0 | 0.00 | 0.29 | 0.29 | 97 | 1010.2 |
| 20260506183038 | 50 | 0 | 0.0 | 0.0 | 0.00 | 0.29 | 0.29 | 97 | 1010.3 |
| 20260506182525 | 50 | 0 | 0.0 | 0.0 | 0.00 | 0.29 | 0.29 | 97 | 1010.2 |
| 20260506182027 | 50 | 0 | 0.0 | 0.0 | 0.00 | 0.29 | 0.29 | 97 | 1010.2 |
| 20260506181538 | 50 | 0 | 0.0 | 0.0 | 0.00 | 0.29 | 0.29 | 97 | 1010.2 |
| 20260506181027 | 50 | 0 | 0.0 | 0.0 | 0.00 | 0.29 | 0.29 | 97 | 1010.2 |
| 20260506180526 | 50 | 0 | 0.0 | 0.0 | 0.00 | 0.29 | 0.29 | 97 | 1010.1 |
| 20260506180038 | 50 | 0 | 0.0 | 0.0 | 0.00 | 0.29 | 0.29 | 97 | 1010.1 |
| 20260506175526 | 50 | 0 | 0.0 | 0.0 | 0.00 | 0.29 | 0.29 | 97 | 1010.0 |
| 20260506175025 | 50 | 0 | 0.0 | 0.0 | 0.00 | 0.29 | 0.29 | 97 | 1010.1 |
| 20260506174537 | 50 | 0 | 0.0 | 0.0 | 0.00 | 0.29 | 0.29 | 97 | 1010.0 |
| 20260506174028 | 50 | 0 | 0.0 | 0.0 | 0.00 | 0.29 | 0.29 | 97 | 1010.0 |
| 20260506173525 | 51 | 0 | 0.0 | 0.0 | 0.00 | 0.29 | 0.28 | 97 | 1009.9 |
| 20260506173055 | 51 | 0 | 0.0 | 0.0 | 0.00 | 0.29 | 0.28 | 97 | 1009.7 |
| 20260506172525 | 51 | 0 | 0.0 | 0.0 | 0.00 | 0.29 | 0.28 | 97 | 1009.7 |
| 20260506172026 | 51 | 0 | 0.0 | 0.0 | 0.00 | 0.29 | 0.28 | 97 | 1009.7 |
| 20260506171537 | 51 | 0 | 0.0 | 0.0 | 0.00 | 0.29 | 0.28 | 97 | 1009.6 |
| 20260506171029 | 51 | 0 | 0.0 | 0.0 | 0.00 | 0.29 | 0.28 | 97 | 1009.6 |
| 20260506170525 | 51 | 0 | 0.0 | 0.0 | 0.00 | 0.29 | 0.28 | 97 | 1009.6 |
| 20260506170042 | 51 | 0 | 0.0 | 0.0 | 0.00 | 0.29 | 0.28 | 97 | 1009.5 |
| 20260506165526 | 51 | 0 | 0.0 | 0.0 | 0.00 | 0.29 | 0.28 | 97 | 1009.5 |
| 20260506165026 | 51 | 0 | 0.0 | 0.0 | 0.00 | 0.29 | 0.28 | 97 | 1009.5 |
| 20260506164541 | 50 | 0 | 0.0 | 0.0 | 0.00 | 0.29 | 0.28 | 97 | 1009.4 |
| 20260506164027 | 50 | 0 | 0.0 | 0.0 | 0.00 | 0.29 | 0.28 | 97 | 1009.4 |
| 20260506163532 | 50 | 0 | 0.0 | 0.0 | 0.00 | 0.29 | 0.28 | 97 | 1009.4 |
| 20260506163040 | 50 | 0 | 0.0 | 0.0 | 0.00 | 0.29 | 0.28 | 97 | 1009.3 |
| 20260506162526 | 50 | 0 | 0.0 | 0.0 | 0.00 | 0.28 | 0.27 | 97 | 1009.3 |
| 20260506162028 | 50 | 0 | 0.0 | 0.0 | 0.00 | 0.28 | 0.27 | 97 | 1009.3 |
| 20260506161538 | 50 | 0 | 0.0 | 0.0 | 0.00 | 0.28 | 0.27 | 97 | 1009.3 |
| 20260506161025 | 50 | 0 | 0.0 | 0.0 | 0.00 | 0.28 | 0.27 | 97 | 1009.4 |
| 20260506160525 | 50 | 0 | 0.0 | 0.0 | 0.00 | 0.28 | 0.27 | 97 | 1009.4 |
| 20260506160038 | 50 | 0 | 0.0 | 0.0 | 0.00 | 0.28 | 0.27 | 97 | 1009.4 |
| 20260506155525 | 50 | 0 | 0.0 | 0.0 | 0.00 | 0.29 | 0.27 | 97 | 1009.4 |
| 20260506155026 | 50 | 0 | 0.0 | 0.0 | 0.00 | 0.29 | 0.27 | 97 | 1009.4 |
| 20260506154549 | 50 | 0 | 0.0 | 0.0 | 0.00 | 0.29 | 0.27 | 97 | 1009.4 |
| 20260506154026 | 50 | 0 | 0.0 | 0.0 | 0.00 | 0.29 | 0.27 | 97 | 1009.4 |
| 20260506153528 | 50 | 0 | 0.0 | 0.0 | 0.00 | 0.29 | 0.27 | 97 | 1009.3 |
| 20260506153045 | 50 | 0 | 0.0 | 0.0 | 0.00 | 0.29 | 0.27 | 97 | 1009.3 |
| 20260506152528 | 50 | 0 | 0.0 | 0.0 | 0.00 | 0.29 | 0.27 | 97 | 1009.3 |
| 20260506152026 | 50 | 0 | 0.0 | 0.0 | 0.00 | 0.29 | 0.27 | 97 | 1009.3 |
| 20260506151539 | 50 | 0 | 0.0 | 0.0 | 0.00 | 0.29 | 0.27 | 97 | 1009.2 |
| 20260506151030 | 50 | 0 | 0.0 | 0.0 | 0.00 | 0.29 | 0.27 | 96 | 1009.2 |
| 20260506150528 | 50 | 0 | 0.0 | 0.9 | 0.00 | 0.29 | 0.27 | 96 | 1009.2 |
| 20260506150042 | 50 | 0 | 0.0 | 0.9 | 0.00 | 0.29 | 0.27 | 96 | 1009.2 |
| 20260506145526 | 50 | 0 | 0.0 | 0.0 | 0.00 | 0.29 | 0.27 | 96 | 1009.3 |
| 20260506145025 | 50 | 0 | 0.0 | 0.0 | 0.00 | 0.29 | 0.27 | 96 | 1009.2 |
| 20260506144542 | 50 | 0 | 0.0 | 0.0 | 0.01 | 0.29 | 0.27 | 96 | 1009.2 |
| 20260506144025 | 50 | 0 | 0.0 | 0.0 | 0.02 | 0.29 | 0.27 | 96 | 1009.2 |
| 20260506143527 | 50 | 0 | 0.0 | 0.0 | 0.03 | 0.29 | 0.27 | 96 | 1009.1 |
| 20260506143040 | 50 | 0 | 0.0 | 0.0 | 0.04 | 0.29 | 0.27 | 96 | 1009.3 |
| 20260506142526 | 50 | 0 | 0.0 | 0.0 | 0.04 | 0.29 | 0.27 | 96 | 1009.3 |
| 20260506142026 | 50 | 0 | 0.0 | 0.0 | 0.04 | 0.29 | 0.26 | 96 | 1009.4 |
| 20260506141538 | 50 | 0 | 0.0 | 0.0 | 0.06 | 0.29 | 0.26 | 96 | 1009.4 |
| 20260506141029 | 50 | 0 | 0.0 | 0.0 | 0.07 | 0.29 | 0.26 | 96 | 1009.3 |
| 20260506140526 | 50 | 0 | 0.0 | 0.0 | 0.07 | 0.29 | 0.26 | 96 | 1009.4 |
| 20260506140041 | 50 | 0 | 0.0 | 0.0 | 0.08 | 0.29 | 0.26 | 95 | 1009.4 |
| 20260506135526 | 50 | 0 | 0.0 | 0.0 | 0.09 | 0.29 | 0.26 | 95 | 1009.3 |
| 20260506135025 | 50 | 0 | 0.0 | 0.0 | 0.10 | 0.29 | 0.26 | 95 | 1009.3 |
| 20260506134539 | 49 | 0 | 0.0 | 0.9 | 0.10 | 0.28 | 0.25 | 95 | 1009.3 |
| 20260506134025 | 50 | 0 | 0.0 | 0.9 | 0.11 | 0.27 | 0.25 | 95 | 1009.3 |
| 20260506133527 | 50 | 0 | 0.0 | 0.0 | 0.11 | 0.26 | 0.24 | 95 | 1009.4 |
| 20260506133044 | 50 | 0 | 0.0 | 0.0 | 0.10 | 0.25 | 0.22 | 95 | 1009.4 |
| 20260506132528 | 50 | 0 | 0.0 | 4.3 | 0.11 | 0.25 | 0.22 | 95 | 1009.2 |
| 20260506132029 | 51 | 0 | 0.0 | 4.3 | 0.11 | 0.24 | 0.22 | 95 | 1009.0 |
| 20260506131548 | 51 | 0 | 0.0 | 0.0 | 0.10 | 0.22 | 0.20 | 95 | 1009.2 |
| 20260506131026 | 51 | 0 | 0.0 | 1.7 | 0.10 | 0.22 | 0.19 | 95 | 1009.0 |
| 20260506130526 | 51 | 0 | 0.0 | 1.7 | 0.08 | 0.20 | 0.18 | 95 | 1009.0 |
| 20260506130059 | 51 | 0 | 0.0 | 0.9 | 0.08 | 0.20 | 0.18 | 95 | 1008.9 |
| 20260506125530 | 51 | 0 | 0.0 | 2.6 | 0.08 | 0.20 | 0.17 | 95 | 1008.9 |
| 20260506125029 | 51 | 0 | 0.0 | 2.6 | 0.07 | 0.19 | 0.16 | 95 | 1008.9 |
| 20260506124545 | 52 | 0 | 0.0 | 1.7 | 0.07 | 0.18 | 0.15 | 95 | 1008.9 |
| 20260506124026 | 52 | 0 | 0.0 | 1.7 | 0.05 | 0.17 | 0.14 | 95 | 1008.8 |
| 20260506123526 | 52 | 0 | 0.0 | 1.7 | 0.05 | 0.16 | 0.13 | 95 | 1008.6 |
| 20260506123043 | 52 | 0 | 0.0 | 9.6 | 0.04 | 0.15 | 0.12 | 95 | 1008.5 |
| 20260506122526 | 52 | 0 | 1.7 | 9.6 | 0.03 | 0.14 | 0.11 | 95 | 1008.3 |
| 20260506122026 | 52 | 208 | 1.7 | 9.6 | 0.03 | 0.14 | 0.11 | 95 | 1008.2 |
| 20260506121539 | 53 | 288 | 4.3 | 9.6 | 0.02 | 0.13 | 0.10 | 95 | 1008.1 |
| 20260506121028 | 53 | 0 | 0.0 | 0.0 | 0.02 | 0.12 | 0.09 | 96 | 1007.9 |
| 20260506120529 | 53 | 0 | 0.0 | 0.0 | 0.02 | 0.12 | 0.09 | 96 | 1007.9 |
| 20260506120040 | 53 | 0 | 0.0 | 0.0 | 0.03 | 0.12 | 0.09 | 96 | 1007.7 |
| 20260506115526 | 53 | 0 | 0.0 | 0.0 | 0.03 | 0.11 | 0.08 | 96 | 1007.7 |
| 20260506115025 | 53 | 0 | 0.0 | 0.0 | 0.04 | 0.11 | 0.08 | 96 | 1007.6 |
| 20260506114541 | 53 | 0 | 0.0 | 0.0 | 0.04 | 0.11 | 0.08 | 96 | 1007.5 |
| 20260506114027 | 53 | 0 | 0.0 | 0.0 | 0.04 | 0.11 | 0.08 | 96 | 1007.5 |
| 20260506113526 | 53 | 0 | 0.0 | 0.0 | 0.03 | 0.11 | 0.07 | 96 | 1007.5 |
| 20260506113046 | 53 | 0 | 0.0 | 0.0 | 0.03 | 0.11 | 0.07 | 96 | 1007.4 |
| 20260506112525 | 53 | 0 | 0.0 | 0.0 | 0.04 | 0.11 | 0.07 | 96 | 1007.4 |
| 20260506112025 | 53 | 0 | 0.0 | 0.0 | 0.04 | 0.11 | 0.07 | 96 | 1007.4 |
| 20260506111540 | 53 | 0 | 0.0 | 0.0 | 0.04 | 0.11 | 0.07 | 96 | 1007.4 |
| 20260506111025 | 53 | 0 | 0.0 | 0.0 | 0.04 | 0.10 | 0.07 | 96 | 1007.5 |
| 20260506110528 | 53 | 0 | 0.0 | 0.0 | 0.05 | 0.10 | 0.07 | 96 | 1007.5 |
| 20260506110043 | 53 | 0 | 0.0 | 0.0 | 0.04 | 0.09 | 0.06 | 95 | 1007.6 |
| 20260506105526 | 53 | 0 | 0.0 | 0.0 | 0.04 | 0.08 | 0.05 | 95 | 1007.6 |
| 20260506105028 | 53 | 0 | 0.0 | 0.0 | 0.03 | 0.07 | 0.03 | 95 | 1007.6 |
| 20260506104547 | 53 | 0 | 0.0 | 0.0 | 0.03 | 0.07 | 0.03 | 94 | 1007.5 |
| 20260506104025 | 53 | 0 | 0.0 | 0.0 | 0.03 | 0.07 | 0.03 | 95 | 1007.5 |
| 20260506103525 | 53 | 0 | 0.0 | 0.0 | 0.03 | 0.07 | 0.03 | 94 | 1007.5 |
| 20260506103047 | 53 | 0 | 0.0 | 0.0 | 0.03 | 0.07 | 0.03 | 94 | 1007.5 |
| 20260506102525 | 53 | 0 | 0.0 | 0.0 | 0.03 | 0.06 | 0.03 | 94 | 1007.5 |
| 20260506102026 | 54 | 0 | 0.0 | 0.0 | 0.03 | 0.06 | 0.03 | 94 | 1007.5 |
| 20260506101551 | 54 | 0 | 0.0 | 0.0 | 0.03 | 0.06 | 0.03 | 93 | 1007.5 |
| 20260506101026 | 54 | 0 | 0.0 | 0.0 | 0.02 | 0.05 | 0.02 | 94 | 1007.5 |
| 20260506100526 | 53 | 0 | 0.0 | 0.0 | 0.01 | 0.04 | 0.01 | 93 | 1007.5 |
| 20260506100058 | 53 | 0 | 0.0 | 0.0 | 0.00 | 0.03 | 0.00 | 93 | 1007.5 |
| 20260506095526 | 53 | 0 | 0.0 | 0.0 | 0.00 | 0.03 | 0.00 | 93 | 1007.4 |
| 20260506095028 | 53 | 0 | 0.0 | 0.0 | 0.00 | 0.03 | 0.00 | 92 | 1007.4 |
| 20260506094540 | 53 | 0 | 0.0 | 0.0 | 0.00 | 0.03 | 0.00 | 93 | 1007.3 |
| 20260506094027 | 53 | 0 | 0.0 | 0.0 | 0.00 | 0.03 | 0.00 | 93 | 1007.1 |
| 20260506093526 | 54 | 0 | 0.0 | 0.0 | 0.00 | 0.03 | 0.00 | 93 | 1007.2 |
| 20260506093043 | 54 | 0 | 0.0 | 0.0 | 0.00 | 0.03 | 0.00 | 92 | 1007.2 |
| 20260506092525 | 54 | 0 | 0.0 | 0.0 | 0.00 | 0.03 | 0.00 | 92 | 1007.2 |
| 20260506092027 | 53 | 0 | 0.0 | 0.0 | 0.00 | 0.03 | 0.00 | 92 | 1007.1 |
| 20260506091539 | 53 | 0 | 0.0 | 0.0 | 0.00 | 0.03 | 0.00 | 92 | 1007.1 |
| 20260506091028 | 53 | 0 | 0.0 | 0.0 | 0.00 | 0.03 | 0.00 | 92 | 1007.1 |
| 20260506090525 | 53 | 0 | 0.0 | 0.0 | 0.00 | 0.03 | 0.00 | 92 | 1007.0 |
| 20260506090038 | 53 | 0 | 0.0 | 0.0 | 0.00 | 0.03 | 0.00 | 92 | 1007.0 |
| 20260506085529 | 53 | 0 | 0.0 | 0.0 | 0.00 | 0.03 | 0.00 | 91 | 1007.1 |
| 20260506085026 | 53 | 0 | 0.0 | 0.0 | 0.00 | 0.03 | 0.00 | 91 | 1007.2 |
| 20260506084604 | 53 | 0 | 0.0 | 0.0 | 0.00 | 0.03 | 0.00 | 91 | 1007.1 |
| 20260506084026 | 52 | 0 | 0.0 | 0.0 | 0.00 | 0.03 | 0.00 | 91 | 1007.2 |
| 20260506083527 | 52 | 0 | 0.0 | 0.0 | 0.00 | 0.03 | 0.00 | 91 | 1007.1 |
| 20260506083041 | 53 | 0 | 0.0 | 0.0 | 0.00 | 0.03 | 0.00 | 92 | 1007.1 |
| 20260506082528 | 52 | 0 | 0.0 | 0.0 | 0.00 | 0.03 | 0.00 | 92 | 1007.1 |
| 20260506082028 | 52 | 0 | 0.0 | 0.0 | 0.00 | 0.03 | 0.00 | 92 | 1007.1 |
| 20260506081545 | 52 | 0 | 0.0 | 0.0 | 0.00 | 0.03 | 0.00 | 91 | 1007.0 |
| 20260506081027 | 52 | 0 | 0.0 | 0.0 | 0.00 | 0.03 | 0.00 | 91 | 1006.9 |
| 20260506080527 | 52 | 0 | 0.0 | 0.0 | 0.00 | 0.03 | 0.00 | 91 | 1006.8 |
| 20260506073527 | 51 | 0 | 0.0 | 0.0 | 0.00 | 0.06 | 0.00 | 94 | 1007.0 |
| 20260506073044 | 50 | 0 | 0.0 | 0.0 | 0.00 | 0.06 | 0.00 | 93 | 1007.0 |
| 20260506072526 | 50 | 0 | 0.0 | 0.0 | 0.00 | 0.06 | 0.00 | 93 | 1007.0 |
| 20260506072025 | 50 | 0 | 0.0 | 0.0 | 0.00 | 0.06 | 0.00 | 94 | 1007.0 |
| 20260506071541 | 50 | 0 | 0.0 | 0.0 | 0.00 | 0.06 | 0.00 | 93 | 1007.0 |
| 20260506071025 | 50 | 0 | 0.0 | 0.0 | 0.00 | 0.06 | 0.00 | 94 | 1007.1 |
| 20260506070528 | 50 | 0 | 0.0 | 0.0 | 0.00 | 0.06 | 0.00 | 94 | 1007.0 |
| 20260506062025 | 48 | 0 | 0.0 | 0.0 | 0.00 | 0.06 | 0.00 | 95 | 1007.1 |
| 20260506061537 | 48 | 0 | 0.0 | 0.0 | 0.00 | 0.06 | 0.00 | 96 | 1007.1 |
| 20260506061028 | 47 | 0 | 0.0 | 0.0 | 0.00 | 0.06 | 0.00 | 95 | 1006.9 |
| 20260506060525 | 47 | 0 | 0.0 | 0.0 | 0.00 | 0.06 | 0.00 | 95 | 1007.0 |
| 20260506051026 | 46 | 0 | 0.0 | 0.0 | 0.00 | 0.07 | 0.00 | 95 | 1007.2 |
| 20260506050525 | 46 | 0 | 0.0 | 0.0 | 0.00 | 0.07 | 0.00 | 95 | 1007.1 |
| 20260506045025 | 46 | 0 | 0.0 | 0.0 | 0.00 | 0.07 | 0.00 | 95 | 1007.2 |
| 20260506044625 | 46 | 0 | 0.0 | 0.0 | 0.00 | 0.07 | 0.00 | 95 | 1007.1 |
| 20260506044026 | 46 | 0 | 0.0 | 0.0 | 0.00 | 0.07 | 0.00 | 95 | 1007.1 |
| 20260506043525 | 46 | 0 | 0.0 | 0.0 | 0.00 | 0.07 | 0.00 | 95 | 1007.1 |
| 20260506043038 | 46 | 0 | 0.0 | 0.0 | 0.00 | 0.07 | 0.00 | 95 | 1007.0 |
| 20260506042525 | 46 | 0 | 0.0 | 0.0 | 0.00 | 0.07 | 0.00 | 95 | 1007.0 |
| 20260506042025 | 46 | 0 | 0.0 | 0.0 | 0.00 | 0.07 | 0.00 | 95 | 1007.1 |
| 20260506041551 | 46 | 0 | 0.0 | 0.0 | 0.00 | 0.07 | 0.00 | 95 | 1007.2 |
| 20260506041030 | 46 | 0 | 0.0 | 0.0 | 0.00 | 0.07 | 0.00 | 95 | 1007.2 |
| 20260506040528 | 46 | 0 | 0.0 | 0.0 | 0.00 | 0.07 | 0.00 | 95 | 1007.2 |
| 20260506040039 | 46 | 0 | 0.0 | 0.0 | 0.00 | 0.07 | 0.00 | 95 | 1007.3 |
| 20260506035528 | 46 | 0 | 0.0 | 0.0 | 0.00 | 0.07 | 0.00 | 95 | 1007.4 |
| 20260506035026 | 46 | 0 | 0.0 | 0.0 | 0.00 | 0.07 | 0.00 | 95 | 1007.4 |
| 20260506034602 | 46 | 0 | 0.0 | 0.0 | 0.00 | 0.07 | 0.00 | 95 | 1007.4 |
| 20260506034026 | 46 | 0 | 0.0 | 0.0 | 0.00 | 0.07 | 0.00 | 95 | 1007.4 |
| 20260506033525 | 47 | 0 | 0.0 | 0.0 | 0.00 | 0.07 | 0.00 | 95 | 1007.5 |
| 20260506033038 | 47 | 0 | 0.0 | 0.0 | 0.00 | 0.07 | 0.00 | 95 | 1007.5 |
| 20260506032525 | 47 | 0 | 0.0 | 0.0 | 0.00 | 0.07 | 0.00 | 95 | 1007.6 |
| 20260506032025 | 47 | 0 | 0.0 | 0.0 | 0.00 | 0.07 | 0.00 | 95 | 1007.6 |
| 20260506031540 | 47 | 0 | 0.0 | 0.0 | 0.00 | 0.07 | 0.00 | 95 | 1007.8 |
| 20260506031025 | 47 | 0 | 0.0 | 0.0 | 0.00 | 0.07 | 0.00 | 95 | 1007.6 |
| 20260506030525 | 47 | 0 | 0.0 | 0.0 | 0.00 | 0.07 | 0.00 | 95 | 1007.6 |
| 20260506030038 | 47 | 0 | 0.0 | 0.0 | 0.00 | 0.07 | 0.00 | 95 | 1007.7 |
| 20260506025526 | 47 | 0 | 0.0 | 0.0 | 0.00 | 0.07 | 0.00 | 95 | 1007.7 |
| 20260506025026 | 47 | 0 | 0.0 | 0.0 | 0.00 | 0.07 | 0.00 | 95 | 1007.7 |
| 20260506024540 | 47 | 0 | 0.0 | 0.0 | 0.00 | 0.07 | 0.00 | 95 | 1007.7 |
| 20260506024026 | 47 | 0 | 0.0 | 0.0 | 0.00 | 0.07 | 0.00 | 95 | 1007.8 |
| 20260506023525 | 47 | 0 | 0.0 | 0.0 | 0.00 | 0.07 | 0.00 | 95 | 1007.8 |
| 20260506023100 | 47 | 0 | 0.0 | 0.0 | 0.00 | 0.07 | 0.00 | 95 | 1007.8 |
| 20260506022524 | 47 | 0 | 0.0 | 0.0 | 0.00 | 0.07 | 0.00 | 95 | 1007.8 |
| 20260506022026 | 47 | 0 | 0.0 | 0.0 | 0.00 | 0.07 | 0.00 | 95 | 1007.7 |
| 20260506021537 | 47 | 0 | 0.0 | 0.0 | 0.00 | 0.07 | 0.00 | 95 | 1007.8 |
| 20260506021026 | 47 | 0 | 0.0 | 0.0 | 0.00 | 0.07 | 0.00 | 94 | 1008.0 |
| 20260506020525 | 47 | 0 | 0.0 | 0.0 | 0.00 | 0.07 | 0.00 | 94 | 1008.0 |
| 20260506020039 | 47 | 0 | 0.0 | 0.0 | 0.00 | 0.07 | 0.00 | 94 | 1008.1 |
| 20260506015528 | 47 | 0 | 0.0 | 0.0 | 0.00 | 0.07 | 0.00 | 94 | 1008.2 |
| 20260506015027 | 47 | 0 | 0.0 | 0.0 | 0.00 | 0.07 | 0.00 | 94 | 1008.2 |
| 20260506014537 | 47 | 0 | 0.0 | 0.0 | 0.00 | 0.07 | 0.00 | 94 | 1008.2 |
| 20260506014025 | 47 | 0 | 0.0 | 0.0 | 0.00 | 0.07 | 0.00 | 94 | 1008.3 |
| 20260506013526 | 47 | 0 | 0.0 | 0.0 | 0.00 | 0.07 | 0.00 | 94 | 1008.4 |
| 20260506013040 | 47 | 0 | 0.0 | 0.0 | 0.00 | 0.07 | 0.00 | 94 | 1008.3 |
| 20260506012525 | 47 | 0 | 0.0 | 0.0 | 0.00 | 0.07 | 0.00 | 94 | 1008.3 |
| 20260506012026 | 47 | 0 | 0.0 | 0.0 | 0.00 | 0.07 | 0.00 | 94 | 1008.4 |
| 20260506011540 | 47 | 0 | 0.0 | 0.0 | 0.00 | 0.07 | 0.00 | 94 | 1008.4 |
| 20260506011025 | 47 | 0 | 0.0 | 0.0 | 0.00 | 0.07 | 0.00 | 94 | 1008.6 |
| 20260506010525 | 47 | 0 | 0.0 | 0.0 | 0.00 | 0.07 | 0.00 | 94 | 1008.6 |
| 20260506010048 | 47 | 0 | 0.0 | 0.0 | 0.00 | 0.07 | 0.00 | 94 | 1008.6 |
| 20260506005526 | 47 | 0 | 0.0 | 0.0 | 0.00 | 0.07 | 0.00 | 94 | 1008.8 |
| 20260506005025 | 47 | 0 | 0.0 | 0.0 | 0.00 | 0.07 | 0.00 | 94 | 1008.9 |
| 20260506004559 | 47 | 0 | 0.0 | 0.0 | 0.00 | 0.07 | 0.00 | 94 | 1009.0 |
| 20260506004025 | 47 | 0 | 0.0 | 0.0 | 0.00 | 0.07 | 0.00 | 94 | 1008.9 |
| 20260506003525 | 47 | 0 | 0.0 | 0.0 | 0.00 | 0.07 | 0.00 | 94 | 1008.8 |
| 20260506003046 | 47 | 0 | 0.0 | 0.0 | 0.00 | 0.07 | 0.00 | 94 | 1008.8 |
| 20260506002526 | 47 | 0 | 0.0 | 0.0 | 0.00 | 0.07 | 0.00 | 94 | 1008.8 |
| 20260506002025 | 47 | 0 | 0.0 | 0.0 | 0.00 | 0.07 | 0.00 | 94 | 1008.8 |
| 20260506001540 | 47 | 0 | 0.0 | 0.0 | 0.00 | 0.07 | 0.00 | 94 | 1008.8 |
| 20260506001025 | 47 | 0 | 0.0 | 0.0 | 0.00 | 0.07 | 0.00 | 94 | 1008.9 |
| 20260506000525 | 47 | 0 | 0.0 | 0.0 | 0.00 | 0.07 | 0.00 | 94 | 1008.8 |
| 20260506000037 | 47 | 0 | 0.0 | 0.0 | 0.00 | 0.07 | 0.00 | 93 | 1008.9 |
| 20260505235525 | 47 | 0 | 0.0 | 0.0 | 0.00 | 0.07 | 0.00 | 94 | 1009.0 |
| 20260505235025 | 47 | 0 | 0.0 | 0.0 | 0.00 | 0.07 | 0.00 | 94 | 1009.0 |
| 20260505234556 | 47 | 0 | 0.0 | 0.0 | 0.00 | 0.07 | 0.00 | 93 | 1009.2 |
| 20260505234031 | 47 | 0 | 0.0 | 0.0 | 0.00 | 0.07 | 0.00 | 93 | 1009.2 |
| 20260505233527 | 47 | 0 | 0.0 | 0.0 | 0.00 | 0.07 | 0.00 | 93 | 1009.3 |
| 20260505233040 | 47 | 0 | 0.0 | 0.0 | 0.00 | 0.07 | 0.00 | 93 | 1009.3 |
| 20260505232527 | 47 | 0 | 0.0 | 0.0 | 0.00 | 0.07 | 0.00 | 93 | 1009.3 |
| 20260505232030 | 47 | 0 | 0.0 | 0.0 | 0.00 | 0.07 | 0.00 | 93 | 1009.5 |
| 20260505231539 | 47 | 0 | 0.0 | 0.0 | 0.00 | 0.07 | 0.00 | 93 | 1009.5 |
| 20260505231027 | 47 | 0 | 0.0 | 0.0 | 0.00 | 0.07 | 0.00 | 93 | 1009.5 |
| 20260505230528 | 47 | 0 | 0.0 | 0.0 | 0.00 | 0.07 | 0.00 | 93 | 1009.5 |
| 20260505230042 | 47 | 0 | 0.0 | 0.0 | 0.00 | 0.07 | 0.00 | 93 | 1009.4 |
| 20260505225529 | 47 | 0 | 0.0 | 0.0 | 0.00 | 0.07 | 0.00 | 93 | 1009.5 |
| 20260505225033 | 47 | 0 | 0.0 | 0.0 | 0.00 | 0.07 | 0.00 | 92 | 1009.6 |
| 20260505224540 | 47 | 0 | 0.0 | 0.0 | 0.00 | 0.07 | 0.00 | 92 | 1009.6 |
| 20260505224027 | 47 | 0 | 0.0 | 0.0 | 0.00 | 0.07 | 0.00 | 92 | 1009.5 |
| 20260505223527 | 47 | 0 | 0.0 | 0.0 | 0.00 | 0.07 | 0.00 | 92 | 1009.4 |
| 20260505223036 | 47 | 0 | 0.0 | 0.0 | 0.00 | 0.07 | 0.00 | 92 | 1009.4 |
| 20260505222527 | 47 | 0 | 0.0 | 0.0 | 0.00 | 0.07 | 0.00 | 92 | 1009.5 |
| 20260505222027 | 48 | 0 | 0.0 | 0.0 | 0.00 | 0.07 | 0.00 | 92 | 1009.5 |
| 20260505221540 | 48 | 0 | 0.0 | 0.0 | 0.00 | 0.07 | 0.00 | 92 | 1009.6 |
| 20260505221026 | 48 | 0 | 0.0 | 0.0 | 0.00 | 0.07 | 0.00 | 92 | 1009.6 |
| 20260505220526 | 48 | 0 | 0.0 | 0.0 | 0.00 | 0.07 | 0.00 | 92 | 1009.6 |
| 20260505220055 | 48 | 0 | 0.0 | 0.0 | 0.00 | 0.07 | 0.00 | 92 | 1009.6 |
| 20260505215528 | 48 | 0 | 0.0 | 0.0 | 0.00 | 0.07 | 0.07 | 91 | 1009.6 |
| 20260505215027 | 48 | 0 | 0.0 | 0.0 | 0.00 | 0.07 | 0.07 | 92 | 1009.5 |
| 20260505214540 | 48 | 0 | 0.0 | 0.0 | 0.00 | 0.07 | 0.07 | 91 | 1009.5 |
| 20260505214027 | 48 | 0 | 0.0 | 0.0 | 0.00 | 0.07 | 0.07 | 91 | 1009.5 |
| 20260505213527 | 48 | 0 | 0.0 | 0.0 | 0.00 | 0.07 | 0.07 | 91 | 1009.6 |
| 20260505213046 | 48 | 0 | 0.0 | 0.0 | 0.00 | 0.07 | 0.07 | 91 | 1009.7 |
| 20260505212527 | 49 | 0 | 0.0 | 0.0 | 0.00 | 0.07 | 0.07 | 91 | 1009.7 |
| 20260505212027 | 49 | 0 | 0.0 | 0.0 | 0.00 | 0.07 | 0.07 | 91 | 1009.8 |
| 20260505211546 | 49 | 0 | 0.0 | 0.0 | 0.00 | 0.07 | 0.07 | 91 | 1009.9 |
| 20260505211027 | 49 | 0 | 0.0 | 0.0 | 0.00 | 0.07 | 0.07 | 91 | 1009.9 |
| 20260505210526 | 49 | 0 | 0.0 | 0.0 | 0.00 | 0.07 | 0.07 | 91 | 1009.8 |
| 20260505210038 | 49 | 0 | 0.0 | 0.0 | 0.00 | 0.07 | 0.07 | 91 | 1009.7 |
| 20260505205527 | 49 | 0 | 0.0 | 0.0 | 0.00 | 0.07 | 0.07 | 91 | 1009.8 |
| 20260505205030 | 50 | 0 | 0.0 | 0.0 | 0.00 | 0.07 | 0.07 | 91 | 1009.8 |
| 20260505204538 | 50 | 0 | 0.0 | 0.0 | 0.00 | 0.07 | 0.07 | 91 | 1009.8 |
| 20260505204027 | 50 | 0 | 0.0 | 0.0 | 0.00 | 0.07 | 0.07 | 90 | 1009.8 |
| 20260505203527 | 50 | 0 | 0.0 | 0.0 | 0.00 | 0.07 | 0.07 | 90 | 1009.7 |
| 20260505203049 | 50 | 0 | 0.0 | 0.0 | 0.00 | 0.07 | 0.07 | 90 | 1009.8 |
| 20260505202527 | 51 | 0 | 0.0 | 0.0 | 0.00 | 0.07 | 0.07 | 90 | 1009.7 |
| 20260505202028 | 51 | 0 | 0.0 | 0.0 | 0.00 | 0.07 | 0.07 | 90 | 1009.8 |
| 20260505201539 | 51 | 0 | 0.0 | 0.0 | 0.00 | 0.07 | 0.07 | 90 | 1009.7 |
| 20260505201027 | 51 | 0 | 0.0 | 0.0 | 0.00 | 0.07 | 0.07 | 90 | 1009.6 |
| 20260505200530 | 51 | 0 | 0.0 | 0.0 | 0.00 | 0.07 | 0.07 | 90 | 1009.4 |
| 20260505200043 | 52 | 0 | 0.0 | 0.0 | 0.00 | 0.07 | 0.07 | 90 | 1009.5 |
| 20260505195527 | 52 | 0 | 0.0 | 0.0 | 0.00 | 0.07 | 0.07 | 90 | 1009.4 |
| 20260505195028 | 52 | 0 | 0.0 | 0.0 | 0.00 | 0.07 | 0.07 | 90 | 1009.2 |
| 20260505194543 | 52 | 0 | 0.0 | 0.0 | 0.00 | 0.07 | 0.07 | 90 | 1009.2 |
| 20260505194027 | 52 | 0 | 0.0 | 0.0 | 0.00 | 0.07 | 0.07 | 90 | 1009.1 |
| 20260505193526 | 53 | 0 | 0.0 | 0.0 | 0.00 | 0.07 | 0.07 | 90 | 1009.1 |
| 20260505193045 | 53 | 0 | 0.0 | 0.0 | 0.00 | 0.07 | 0.07 | 90 | 1009.1 |
| 20260505192526 | 53 | 0 | 0.0 | 0.0 | 0.00 | 0.07 | 0.07 | 90 | 1009.1 |
| 20260505192026 | 53 | 0 | 0.0 | 0.0 | 0.00 | 0.07 | 0.07 | 90 | 1009.1 |
| 20260505191551 | 54 | 0 | 0.0 | 0.0 | 0.00 | 0.07 | 0.07 | 90 | 1009.0 |
| 20260505191032 | 54 | 0 | 0.0 | 0.0 | 0.00 | 0.07 | 0.07 | 90 | 1008.9 |
| 20260505190526 | 54 | 0 | 0.0 | 0.0 | 0.00 | 0.07 | 0.07 | 90 | 1009.0 |
| 20260505190038 | 55 | 0 | 0.0 | 0.0 | 0.00 | 0.07 | 0.07 | 90 | 1008.9 |
| 20260505185527 | 55 | 0 | 0.0 | 0.0 | 0.00 | 0.07 | 0.07 | 90 | 1008.9 |